Regional Weather Roundup
Issued by NWS

Home | Current Version | Previous Version | Text Only | Print | Product List | Glossary Off
Versions: 1 2 3 4 5 6 7 8 9 10 11 12 13 14 15 16 17 18 19 20 21 22 23 24 25 26 27 28 29 30 31 32 33 34 35 36 37 38 39 40 41 42 43 44 45 46 47 48 49 50

000
ASUS45 KBOU 192110
RWRCO

WEATHER ROUNDUP FOR COLORADO
NATIONAL WEATHER SERVICE DENVER/BOULDER CO
200 PM MST SUN NOV 19 2017

NOTE: "FAIR" INDICATES FEW OR NO CLOUDS BELOW 12000 FEET WITH NO
SIGNIFICANT WEATHER AND/OR OBSTRUCTIONS TO VISIBILITY.

COZ001>005-013-030-031-192200-
...NORTHWEST COLORADO...

CITY           SKY/WX    TMP DP  RH WIND       PRES   REMARKS
CRAIG          FAIR      37  22  54 CALM      30.20F
HAYDEN         FAIR      33  21  61 CALM      30.20F
MEEKER         FAIR      40  26  57 CALM      30.19F
RABBIT EARS PA FAIR      30  18  59 W6        30.22F WCI  24
STEAMBOAT SPGS FAIR      36  19  50 CALM      30.19F
WALDEN         FAIR      34  16  47 S8        30.17F WCI  27
$$

COZ006>008-011-192200-
...WEST CENTRAL VALLEYS...

CITY           SKY/WX    TMP DP  RH WIND       PRES   REMARKS
GRAND JUNCTION FAIR      43  16  33 SW3       30.25F
MONTROSE       FAIR      43  19  38 NW3       30.25F
EAGLE          FAIR      38  16  40 CALM      30.25F
RIFLE          FAIR      40  18  41 VRB3      30.24F
DELTA          FAIR      48  15  26 SW10      30.24F
NUCLA          FAIR      46   9  21 NW3       30.28F
$$

COZ017>023-064>068-192200-
...SOUTHWEST COLORADO...

CITY           SKY/WX    TMP DP  RH WIND       PRES   REMARKS
DURANGO        FAIR      49  10  20 W5        30.21F
CORTEZ         FAIR      48  13  24 CALM      30.23F
PAGOSA SPRINGS FAIR      48   3  15 CALM      30.23F
TELLURIDE      FAIR      44  -3  14 W8        30.27F
WOLF CREEK PAS FAIR      30   5  34 SW10      30.36F WCI  21
$$

COZ009-010-012-014-032>034-037-058>063-192200-
...CENTRAL COLORADO...

CITY           SKY/WX    TMP DP  RH WIND       PRES   REMARKS
ASPEN          FAIR      37  24  59 N8        30.21F
BUENA VISTA    FAIR      48  -2  12 W18G25    30.17F
COPPER MTN     FAIR      32  -2  23 MISG      30.27F
BERTHOUD PASS  FAIR      21  10  63 NW30G45   30.21F WCI   3
COTTONWOOD PAS FAIR      45 -15   8 W7G20     30.22F
GUNNISON       FAIR      31  15  52 VRB3      30.28F
KREMMLING      FAIR      43  14  31 CALM      30.21F
LEADVILLE      FAIR      37   4  25 NW10G17   30.21F
MONARCH PASS   FAIR      25  -4  28 W33G39    30.37F WCI   7
SALIDA         FAIR      50  -2  11 SW16G23   30.23F
SUNLIGHT       FAIR      32   5  32 SW9G23    30.30F WCI  24
WILKERSON PASS FAIR      32   3  29 W10G22    30.24F WCI  24
$$

COZ069>075-192200-
...SAN LUIS VALLEY/SANGRE DE CRISTO MOUNTAINS...

CITY           SKY/WX    TMP DP  RH WIND       PRES   REMARKS
ALAMOSA        FAIR      44  10  25 SE5       30.20F
DEL NORTE      FAIR      44  11  26 E3        30.23F
LA VETA PASS   FAIR      36   5  27 MISG        N/A
SAGUACHE       FAIR      45   7  21 SW5       30.22F
$$

COZ035-036-038>040-192200-
...NORTHERN COLORADO FRONT RANGE...

CITY           SKY/WX    TMP DP  RH WIND       PRES   REMARKS
DENVER INTL AP PTSUNNY   60   3  10 VRB5      30.01F
DMNS CITY PARK   N/A     59   3  10 N15       30.00F
AURORA         PTSUNNY   60   4  10 CALM      30.02F
FRONT RANGE AP PTSUNNY   61   9  12 SW3       30.03F
ERIE MUNI ARPT FAIR      54  21  27 CALM      30.07S
BOULDER MUN AP FAIR      52  21  30 E3        30.01F
CENTENNIAL     PTSUNNY   59   7  12 CALM      30.02F
BROOMFIELD     PTSUNNY   57   1  10 NW15      30.03F
FORT COLLINS   FAIR      50  22  33 S5        30.02F
LONGMONT       FAIR      53  23  31 CALM      30.03F
$$

COZ041-046-047-076>085-087-088-192200-
...PIKES PEAK/PALMER DIVIDE AND SOUTHERN FOOTHILLS...

CITY           SKY/WX    TMP DP  RH WIND       PRES   REMARKS
COLO. SPRINGS  PTSUNNY   57   8  14 SE6       30.06F
A. F. ACADEMY  FAIR      56  -4   8 W10       30.05F
SCHRIEVER AFB  FAIR      56   5  13 S6        30.06F
CHEYENNE MTN   FAIR      51  13  22 CALM      30.02F
ELLICOTT       NOT AVBL
FALCON         FAIR      55   3  12 SW7       30.08F
FORT CARSON    FAIR      57  15  19 E6        30.03F
LIMON          FAIR      59   5  11 S12       30.03F
MONUMENT HILL  FAIR      54   9  16 W3        30.09F
CANON CITY     FAIR      63   5  10 W8G16     30.04F
WALSENBURG     FAIR      61  10  13 SW15G22   30.07F
TRINIDAD       FAIR      59  12  15 E7        30.06F
$$

COZ042>045-048>051-090-091-192200-
...NORTHEAST COLORADO...

CITY           SKY/WX    TMP DP  RH WIND       PRES   REMARKS
GREELEY ARPT   FAIR      56  20  24 S3        30.02F
AKRON          FAIR      61  10  13 SW8       30.00F
BURLINGTON     FAIR      61  15  16 S15       30.03F
WRAY           NOT AVBL
YUMA           FAIR      59  14  17 W6        30.00F
STERLING       FAIR      55  25  30 SW9       29.98F
HOLYOKE        FAIR      61  14  16 W7        29.99F
FORT MORGAN    FAIR      58  15  18 SW5       30.02S
$$

COZ086-089-092>099-192200-
...SOUTHEAST COLORADO...

CITY           SKY/WX    TMP DP  RH WIND       PRES   REMARKS
PUEBLO         FAIR      62  12  14 S8        30.01F
LA JUNTA       FAIR      63  18  17 E5        30.03F
LAMAR          FAIR      60  17  18 N5        30.03F
SPRINGFIELD      N/A     62  10  13 S9        30.05F
$$



USA.gov is the U.S. government's official web portal to all federal, state and local government web resources and services.